Weather Roundup
Issued by NWS

Home | Current Version | Previous Version | Text Only | Print | Product List | Glossary On
Versions: 1 2 3 4 5 6 7 8 9 10 11 12 13 14 15 16 17 18 19 20 21 22 23 24 25 26 27 28 29 30 31 32 33 34 35 36 37 38 39 40 41 42 43 44 45 46 47 48 49 50
000
NZUS93 KARX 052059
HRRWXR

CURRENT HOURLY OBSERVATIONS ACROSS
MUCH OF THE UPPER MISSISSIPPI VALLEY
NATIONAL WEATHER SERVICE LA CROSSE WI
400 PM CDT TUE MAY 05 2015


...SOUTHEAST MINNESOTA...


CITY           SKY/WX    TMP DP  RH WIND       PRES   REMARKS
ROCHESTER      LGT RAIN  54  51  90 SE16      30.19F FOG
ROCHESTER/MAYO CLOUDY    55  54  94 E14G20    30.18F
WINONA         CLOUDY    59  50  72 SE9       30.20F
AUSTIN         LGT RAIN  54  52  94 E12G17    30.16F
ALBERT LEA     DRIZZLE   54  54 100 E15       30.15F
DODGE CENTER   LGT RAIN  57  52  82 SE16      30.17F
PRESTON        LGT RAIN  51  49  94 E12       30.19F
OWATONNA       LGT RAIN  57  54  88 SE12G18   30.15F
FARIBAULT      LGT RAIN  61  54  77 E16       30.15F
$$

...ELSEWHERE IN MINNESOTA...


CITY           SKY/WX    TMP DP  RH WIND       PRES   REMARKS
MINNEAPOLIS    CLOUDY    67  48  50 SE20      30.15F
INTNL FALLS    SUNNY     74  21  13 SE12      30.11F
DULUTH         SUNNY     69  29  22 SE12      30.17F
RED WING       CLOUDY    66  46  48 SE14      30.16F
REDWOOD FALLS  CLOUDY    65  53  65 SE20G26   30.09F
MANKATO        CLOUDY    57  54  88 E15       30.14F
WORTHINGTON    CLOUDY    61  54  77 SE16      30.08F
FAIRMONT       CLOUDY    55  52  88 E13       30.11F
$$

...SOUTHWEST WISCONSIN...


CITY           SKY/WX    TMP DP  RH WIND       PRES   REMARKS
LA CROSSE      LGT RAIN  58  51  78 SE8       30.21F
PRAIRIE DU CHI CLOUDY    54  53  96 E8        30.20F
BOSCOBEL       LGT RAIN  55  53  93 VRB3      30.21F FOG
LONE ROCK      NOT AVBL
PLATTEVILLE    CLOUDY    56  54  94 E14G21    30.20F
FORT MC COY    CLOUDY    58  49  69 E9        30.24F
VIROQUA        CLOUDY    52  52 100 E14       30.22F
WIS DELLS      NOT AVBL
$$

...ELSEWHERE IN WISCONSIN...


CITY           SKY/WX    TMP DP  RH WIND       PRES   REMARKS
MILWAUKEE      CLOUDY    48  44  86 E9        30.27F
MADISON        LGT RAIN  55  50  83 E10       30.23F
GREEN BAY      PTSUNNY   65  21  18 SE13      30.28F
EAU CLAIRE     NOT AVBL
BLACK RVR FLS  MOCLDY    65  36  34 SE7       30.22F
MEDFORD        MOSUNNY   66  25  21 SE15      30.24S
WAUSAU         MOSUNNY   68  22  17 SE15G21   30.23F
WIS RAPIDS     CLOUDY    64  33  31 SE14      30.25F
MARSHFIELD     CLOUDY    65  32  29 SE15      30.24F
RICE LAKE      SUNNY     72  30  21 SE15G24   30.20F
$$

...NORTHEAST IOWA...


CITY           SKY/WX    TMP DP  RH WIND       PRES   REMARKS
DECORAH        CLOUDY    52  52 100 E9        30.19F FOG
MASON CITY     CLOUDY    55  53  93 E14       30.15F
CHARLES CITY   CLOUDY    54  54 100 E15       30.17S FOG
OELWEIN        CLOUDY    57  55  94 E13G20    30.17F
$$

...ELSEWHERE IN IOWA...


CITY           SKY/WX    TMP DP  RH WIND       PRES   REMARKS
DES MOINES     CLOUDY    72  64  76 E5        30.07F
IOWA CITY        N/A     69  63  81 E13       30.13F HAZE
FORT DODGE     CLOUDY    64  61  88 E15       30.08F
$$

...NORTHERN ILLINOIS...


CITY           SKY/WX    TMP DP  RH WIND       PRES   REMARKS
CHICAGO-OHARE  CLOUDY    50  49  96 NE12      30.21F FOG
CHICAGO-MIDWAY CLOUDY    57  53  86 NE12      30.20F FOG
MOLINE         PTSUNNY   72  63  73 E12       30.13F HAZE
ROCKFORD       CLOUDY    56  51  84 E13       30.22F
PEORIA         MOSUNNY   84  61  45 W8        30.11F
$$

NOTE: "FAIR" INDICATES FEW OR NO CLOUDS BELOW 12,000 FEET WITH NO
SIGNIFICANT WEATHER AND/OR OBSTRUCTIONS TO VISIBILITY. WIND
SPEEDS ARE IN MILES-PER-HOUR.



USA.gov is the U.S. government's official web portal to all federal, state and local government web resources and services.